sat.trackr.live / text

‹ back to catalog

STARLINK-6350

NORAD 57226 · 2023-094J

PAYLOAD ACTIVE UNKNOWN

§ Identity

Operator
Country
US
Launch date
2023-07-07
Launch site
AFWTR
Launch vehicle
Mass (kg)
RCS (m²)

Purposes: comms

External: N2YO · Heavens-Above · Gunter

§ Orbital elements

Epoch: 2026-05-25T04:42:50.649120Z

Period
94.27 min
Inclination
43.0063°
Eccentricity
0.0001728
Mean motion
15.27561225 rev/d
Perigee alt
481.9 km
Apogee alt
484.3 km
Semi-major
6,861.2 km
B*
-6.7245e-5
RAAN
318.8674°
Arg perigee
265.5438°
Mean anomaly
94.5217°
Rev number
15,881

§ Raw data

STARLINK-63501 57226U 23094J   26145.19641955 -.00002111  00000+0 -67245-4 0  99922 57226  43.0063 318.8674 0001728 265.5438  94.5217 15.27561225158815

JSON: /api/v1/satellites/57226 · /tle

For live sub-satellite position, see the globe view (requires WebGL).

§ Visibility from observer

Set your observer location to see the next 7 days of passes ≥ 10°. The values pass through the URL so the page stays shareable.

No JS? Fill the form by hand. The geolocation button needs JavaScript.